This is the latest recevied weather packets stored in our database for station/object F6BIJ-13. If no packets are shown the sender has not sent any weather packets the latest 10 day(s).
| Time | Temp. | Humidity | Pressure | Rain* | Wind** | Luminosity | Snow |
|---|---|---|---|---|---|---|---|
| 1777453237 | 17.22° C | 74% | 1017.1 hPa | 0 mm | - | - | - |
| 1777452877 | 16.67° C | 79% | 1017.1 hPa | 0 mm | - | - | - |
| 1777452517 | 16.67° C | 77% | 1017.1 hPa | 0 mm | - | - | - |
| 1777452157 | 16.67° C | 77% | 1017.1 hPa | 0 mm | - | - | - |
| 1777451797 | 16.11° C | 82% | 1017 hPa | 0 mm | - | - | - |
| 1777451437 | 15.56° C | 79% | 1017 hPa | 0 mm | - | - | - |
| 1777451077 | 15.56° C | 83% | 1017 hPa | 0 mm | - | - | - |
| 1777450717 | 15.56° C | 84% | 1017.1 hPa | 0 mm | - | - | - |
| 1777450357 | 15° C | 79% | 1017.2 hPa | 0 mm | - | - | - |
| 1777449997 | 15.56° C | 85% | 1017.2 hPa | 0 mm | - | - | - |
| 1777449637 | 15.56° C | 83% | 1017.2 hPa | 0 mm | - | - | - |
| 1777449277 | 16.11° C | 87% | 1017.1 hPa | 0 mm | - | - | - |
| 1777448917 | 15.56° C | 91% | 1017.1 hPa | 0 mm | - | - | - |
| 1777448197 | 15° C | 92% | 1017.1 hPa | 0 mm | - | - | - |
| 1777447837 | 14.44° C | 94% | 1017.1 hPa | 0 mm | - | - | - |
| 1777447477 | 13.89° C | 95% | 1017 hPa | 0 mm | - | - | - |
| 1777447117 | 13.89° C | 96% | 1017 hPa | 0 mm | - | - | - |
| 1777446757 | 14.44° C | 96% | 1017 hPa | 0 mm | - | - | - |
| 1777446397 | 13.33° C | 96% | 1016.9 hPa | 0 mm | - | - | - |
| 1777446037 | 13.33° C | 96% | 1017 hPa | 0 mm | - | - | - |
| 1777445677 | 13.33° C | 96% | 1016.8 hPa | 0 mm | - | - | - |
| 1777445317 | 13.33° C | 96% | 1016.9 hPa | 0 mm | - | - | - |
| 1777444957 | 12.78° C | 96% | 1016.8 hPa | 0 mm | - | - | - |
| 1777444597 | 13.33° C | 97% | 1016.7 hPa | 0 mm | - | - | - |
| 1777444237 | 12.78° C | 96% | 1016.6 hPa | 0 mm | - | - | - |
* Rain latest 24 hours (hover to see other rain measurements)
** Current wind speed in m/s (hover to see current wind gust speed)